Printer-friendly version

IAU Minor Planet Center

Minor Planet Center

MPEC 2006-S14 : 2006 SW5

The following Minor Planet Electronic Circular may be linked-to from your own Web pages, but must not otherwise be redistributed electronically.


Read MPEC 2006-S13 Read MPEC 2006-S15


M.P.E.C. 2006-S14                                Issued 2006 Sept. 18, 19:06 UT

     The Minor Planet Electronic Circulars contain information on unusual
         minor planets and routine data on comets.  They are published
   on behalf of Commission 20 of the International Astronomical Union by the
          Minor Planet Center, Smithsonian Astrophysical Observatory,
                          Cambridge, MA 02138, U.S.A.

                  Supported in part by the Brinson Foundation
                  Supported in part by the TABASGO Foundation
             Prepared using the Tamkin Foundation Computer Network

                              MPC@CFA.HARVARD.EDU
          URL http://cfa-www.harvard.edu/iau/mpc.html  ISSN 1523-6714

                                   2006 SW5

Observations:
     K06S05W* C2006 09 16.20845 00 07 40.48 +03 27 09.8          21.1 V ES014691
     K06S05W  C2006 09 16.22583 00 07 38.93 +03 27 07.8          21.4 V ES014691
     K06S05W  C2006 09 16.24321 00 07 37.38 +03 27 05.9          20.8 V ES014691
     K06S05W  C2006 09 16.28722 00 07 33.43 +03 27 00.2          22.2 V ES014291
     K06S05W HC2006 09 16.29128 00 07 32.98 +03 26 59.0                 ES014291
     K06S05W HC2006 09 16.29627 00 07 32.58 +03 26 59.1                 ES014291
     K06S05W  C2006 09 17.30769 00 06 04.58 +03 24 55.6          21.1 V ES014291
     K06S05W  C2006 09 17.31244 00 06 04.16 +03 24 55.1          21.0 V ES014291
     K06S05W  C2006 09 17.31632 00 06 03.81 +03 24 54.6          20.9 V ES014291
     K06S05W  C2006 09 17.32176 00 06 03.27 +03 24 53.5                 ES014703
     K06S05W  C2006 09 17.34601 00 06 00.96 +03 24 51.0                 ES014703
     K06S05W  C2006 09 17.35815 00 05 59.89 +03 24 49.2          20.5 V ES014703
     K06S05W HC2006 09 18.18076 00 04 47.63 +03 23 02.8                 ES014291
     K06S05W HC2006 09 18.18487 00 04 47.30 +03 23 02.3                 ES014291
     K06S05W  C2006 09 18.18864 00 04 46.93 +03 23 01.2          21.1 V ES014291
     K06S05W  C2006 09 18.36092 00 04 30.93 +03 22 36.5          20.5 R ES014734
     K06S05W  C2006 09 18.36677 00 04 30.39 +03 22 36.1          20.3 R ES014734
     K06S05W  C2006 09 18.37262 00 04 29.85 +03 22 35.6          20.6 R ES014734

Observer details:
291 LPL/Spacewatch II.  Observer R. S. McMillan.  1.8-m f/2.7 reflector + CCD.
691 Steward Observatory, Kitt Peak.  Observer R. S. McMillan.  0.9-m f/3
    reflector + CCD.
703 Catalina Sky Survey.  Observer A. R. Gibbs.  Measurers E. C. Beshore,
    E. J. Christensen, G. J. Garradd, A. R. Gibbs, A. D. Grauer, R. E. Hill,
    R. A. Kowalski, S. M. Larson, R. H. McNaught.  0.68-m Schmidt + CCD.
734 Farpoint Observatory.  Observer D. Tibbets.  Measurer G. Hug.  0.7-m
    reflector + CCD.

Orbital elements:
2006 SW5                                                 Earth MOID = 0.1810 AU
Epoch 2006 Sept. 22.0 TT = JDT 2454000.5                MPC
M 283.73641              (2000.0)            P               Q
n   0.40857690     Peri.  128.28312     -0.47624240     -0.87895313
a   1.7986784      Node   350.06265     +0.75429739     -0.39364131
e   0.3706987      Incl.    8.39365     +0.45191662     -0.26923580
P   2.41           H   19.4           G   0.15           U   9
Residuals in seconds of arc
060916 691  0.6+  0.3+    060917 291  0.2+  0.1-    060918 291  0.5-  0.4+
060916 691  0.5+  0.3+    060917 291  0.4+  0.0     060918 291  0.2+  0.4+
060916 691  0.4+  0.5+    060917 291  0.5+  0.0     060918 291  0.2-  0.2-
060916 291  0.1+  0.1-    060917 703  0.1-  0.4-    060918 734  0.5+  0.9-
060916 291  1.2-  0.8-    060917 703  1.5-  0.2+    060918 734  0.5+  0.5-
060916 291  0.5-  0.2-    060917 703  0.9-  0.1-    060918 734  0.5+  0.2-

Ephemeris:
2006 SW5                 a,e,i = 1.80, 0.37, 8                   q = 1.1319
Date    TT    R. A. (2000) Decl.     Delta      r     Elong.  Phase     V
2006 09 12    00 13.43   +03 34.2    0.940    1.928   164.4     8.1    21.3
2006 09 22    23 58.95   +03 13.8    0.881    1.884   176.2     2.0    20.7
2006 10 02    23 42.79   +02 43.7    0.847    1.838   167.8     6.6    20.9
2006 10 12    23 27.27   +02 12.7    0.838    1.791   154.4    13.9    21.1
2006 10 22    23 14.57   +01 50.1    0.850    1.743   141.5    20.8    21.3
2006 11 01    23 06.27   +01 43.9    0.878    1.693   129.6    26.8    21.5
2006 11 11    23 02.97   +01 58.6    0.916    1.643   119.0    31.8    21.6
2006 11 21    23 04.59   +02 35.5    0.960    1.592   109.6    35.8    21.8
2006 12 01    23 10.72   +03 34.6    1.005    1.541   101.4    38.9    21.9
2006 12 11    23 20.83   +04 54.7    1.048    1.490    94.2    41.2    22.0

Kyle E. Smalley              (C) Copyright 2006 MPC           M.P.E.C. 2006-S14

Read MPEC 2006-S13 Read MPEC 2006-S15


Our Web policy. Index to the CBAT/MPC/ICQ pages.


Valid HTML 4.01!